Epoch 2003 Jan. 1.0 TT = JDT 2452640.5 T 2002 Dec. 22.19288 TT Nakano q 5.4707250 (2000.0) P Q n 0.05057214 Peri. 56.36677 +0.88309845 -0.46891025 a 7.2420547 Node 331.58698 +0.41846143 +0.80270846 e 0.2445894 Incl. 1.94315 +0.21219605 +0.36848652 P 19.49 >From 227 observations 1942-2001, mean residual 1".0.
m1 = 11.0 + 5 logΔ + 10.0 log r